F6JSP-13 Weather Reports


time (UTC)temp
F
wind
direction
speed
knots
gust
knots
rain 1hr
in
rain 24hr
in
rain mn
in
humidity
%
barometer
mb
20260506073005 50 4 3.5 8.7 0.03 1.48 0.08 99 1007.7
20260506072505 50 5 4.3 8.7 0.02 1.48 0.08 99 1007.6
20260506072005 50 7 4.3 10.4 0.02 1.48 0.07 99 1007.4
20260506071504 49 358 3.5 11.3 0.02 1.48 0.07 99 1007.6
20260506071005 49 3 4.3 7.8 0.02 1.49 0.07 99 1007.4
20260506070505 49 11 2.6 7.8 0.02 1.49 0.07 99 1007.2
20260506062505 50 10 5.2 10.4 0.03 1.56 0.06 99 1006.7
20260506062004 50 2 4.3 10.4 0.02 1.56 0.05 99 1006.9
20260506061505 50 5 4.3 10.4 0.02 1.56 0.05 99 1006.8
20260506061005 50 358 3.5 8.7 0.03 1.57 0.05 99 1006.8
20260506060505 50 1 2.6 10.4 0.03 1.58 0.05 99 1006.8
20260506051004 50 9 4.3 7.0 0.02 1.56 0.02 99 1006.5
20260506050505 50 24 0.9 5.2 0.02 1.56 0.02 99 1006.2
20260506045005 50 0 2.6 7.0 0.00 1.55 0.01 99 1006.6
20260506044505 50 0 2.6 7.0 0.00 1.55 0.01 99 1006.6
20260506044005 50 11 2.6 7.0 0.00 1.54 0.00 99 1006.4
20260506043505 50 359 1.7 6.1 0.00 1.54 0.00 99 1006.3
20260506043005 50 350 2.6 5.2 0.00 1.54 0.00 99 1006.3
20260506042504 50 359 2.6 7.0 0.00 1.54 0.00 99 1006.3
20260506042005 50 6 2.6 7.0 0.00 1.54 0.00 99 1006.2
20260506041505 50 0 2.6 6.1 0.00 1.54 0.00 99 1006.4
20260506041005 50 352 3.5 8.7 0.00 1.54 0.00 99 1006.2
20260506040505 50 353 4.3 7.8 0.00 1.54 0.00 99 1006.5
20260506040005 50 354 2.6 6.1 0.00 1.54 0.00 99 1006.1
20260506035504 50 2 2.6 6.1 0.00 1.54 0.00 99 1006.3
20260506035006 50 351 2.6 6.1 0.00 1.54 0.00 99 1006.3
20260506033505 50 352 2.6 7.0 0.00 1.54 0.00 99 1006.5
20260506033006 50 351 2.6 5.2 0.00 1.54 0.00 99 1006.2
20260506032505 50 350 1.7 4.3 0.00 1.54 0.00 99 1006.3
20260506031505 50 351 1.7 7.0 0.00 1.54 0.00 99 1006.4
20260506031004 50 357 2.6 6.1 0.00 1.54 0.00 99 1006.5
20260506030505 50 350 3.5 7.0 0.00 1.54 0.00 99 1006.5
20260506030005 50 344 2.6 7.0 0.00 1.54 0.00 99 1006.5
20260506025505 50 348 2.6 6.1 0.00 1.54 0.00 99 1006.5
20260506025005 50 356 1.7 6.1 0.00 1.54 0.00 99 1006.5
20260506024505 50 358 1.7 6.1 0.00 1.54 0.00 99 1006.5
20260506024005 50 345 2.6 7.8 0.00 1.54 0.00 99 1006.5
20260506023504 50 342 2.6 5.2 0.00 1.54 0.00 99 1006.4
20260506023006 50 341 2.6 6.1 0.00 1.54 0.00 99 1006.6
20260506022505 50 3 1.7 6.1 0.00 1.55 0.00 99 1006.4
20260506022005 50 356 2.6 7.8 0.00 1.55 0.00 99 1006.5
20260506021505 50 356 1.7 6.1 0.00 1.55 0.00 99 1006.6
20260506021005 50 331 2.6 5.2 0.00 1.55 0.00 99 1006.6
20260506020504 50 341 2.6 5.2 0.00 1.56 0.00 99 1006.6
20260506020005 50 329 0.9 7.0 0.00 1.57 0.00 99 1006.4
20260506015504 50 355 1.7 6.1 0.00 1.58 0.00 99 1006.5
20260506015005 50 346 2.6 5.2 0.00 1.60 0.00 99 1006.6
20260506014505 50 349 1.7 5.2 0.00 1.60 0.00 99 1006.5
20260506014006 50 339 1.7 7.0 0.00 1.61 0.00 99 1006.4
20260506013504 50 355 2.6 10.4 0.00 1.62 0.00 99 1006.2
20260506013005 50 339 1.7 5.2 0.00 1.62 0.00 99 1006.5
20260506012505 51 342 1.7 7.0 0.00 1.63 0.00 99 1006.4
20260506012005 50 342 2.6 7.0 0.00 1.63 0.00 99 1006.3
20260506011504 50 339 2.6 7.0 0.00 1.63 0.00 99 1006.5
20260506010505 51 343 2.6 7.0 0.00 1.67 0.00 99 1006.6
20260506010005 51 346 1.7 6.1 0.00 1.68 0.00 99 1006.9
20260506005504 51 343 1.7 5.2 0.00 1.69 0.00 99 1006.8
20260506005006 51 342 1.7 6.1 0.00 1.71 0.00 99 1006.8
20260506004505 51 353 1.7 4.3 0.00 1.72 0.00 99 1006.8
20260506003505 51 331 1.7 4.3 0.00 1.75 0.00 99 1006.8
20260506003005 51 331 1.7 4.3 0.00 1.76 0.00 99 1006.8
20260506002005 51 348 1.7 6.1 0.00 1.77 0.00 99 1006.9
20260506001505 51 291 1.7 4.3 0.00 1.78 0.00 99 1007.0
20260506001004 51 310 0.9 4.3 0.00 1.79 0.00 99 1007.2
20260506000505 51 346 1.7 5.2 0.00 1.79 0.00 99 1007.0
20260506000005 51 341 1.7 5.2 0.00 1.79 0.00 99 1007.0
20260505235505 51 345 3.5 6.1 0.00 1.80 0.00 99 1007.0
20260505235005 51 351 2.6 6.1 0.00 1.81 0.00 99 1007.1
20260505234004 51 0 1.7 5.2 0.00 1.83 0.00 99 1007.0
20260505233505 51 358 1.7 6.1 0.00 1.83 0.00 99 1006.9
20260505233005 51 1 2.6 7.8 0.00 1.83 0.00 99 1007.1
20260505232504 51 1 3.5 7.0 0.00 1.83 0.00 99 1007.0
20260505232005 51 352 3.5 7.8 0.00 1.83 0.00 99 1007.1
20260505231505 51 0 1.7 6.1 0.00 1.83 0.00 99 1007.1
20260505231004 51 348 1.7 4.3 0.00 1.83 0.00 99 1007.2
20260505230005 51 358 1.7 5.2 0.91 1.83 0.91 99 1007.2
20260505225505 51 3 2.6 6.1 0.00 1.84 0.91 99 1007.2
20260505225005 51 4 2.6 7.0 0.00 1.85 0.91 99 1006.9
20260505224504 51 350 2.6 7.0 0.00 1.85 0.91 99 1007.1
20260505224005 51 2 3.5 6.1 0.00 1.85 0.91 99 1007.1
20260505223505 51 26 1.7 5.2 0.00 1.85 0.91 99 1007.2
20260505222505 51 0 2.6 5.2 0.00 1.85 0.91 99 1007.2
20260505222005 51 356 2.6 6.1 0.00 1.85 0.91 99 1007.2
20260505221504 51 357 3.5 7.8 0.00 1.85 0.91 99 1007.1
20260505221005 52 4 4.3 7.8 0.00 1.85 0.91 99 1007.2
20260505220504 52 358 2.6 7.0 0.00 1.85 0.91 99 1007.1
20260505220005 52 352 2.6 6.1 0.00 0.94 0.00 99 1007.2
20260505215505 52 357 4.3 6.1 0.00 0.94 0.91 99 1007.0
20260505215004 52 1 1.7 7.0 0.00 0.94 0.91 99 1007.2
20260505214505 52 356 3.5 7.0 0.00 0.94 0.91 99 1007.1
20260505214005 53 7 2.6 7.0 0.00 0.94 0.91 99 1007.2
20260505213504 53 7 4.3 10.4 0.00 0.94 0.91 99 1007.0
20260505213005 53 350 1.7 7.8 0.01 0.94 0.91 99 1007.2
20260505212505 53 5 3.5 6.1 0.01 0.94 0.91 99 1007.0
20260505212004 53 6 2.6 7.0 0.02 0.94 0.91 99 1007.2
20260505211504 53 349 1.7 5.2 0.03 0.94 0.91 99 1007.1
20260505211005 53 347 2.6 6.1 0.04 0.94 0.91 99 1007.2
20260505210504 53 349 1.7 5.2 0.04 0.94 0.91 99 1007.2
20260505210005 53 358 2.6 7.0 0.04 0.94 0.91 99 1007.1
20260505205504 53 354 3.5 7.8 0.04 0.94 0.91 99 1007.1
20260505204504 53 3 4.3 8.7 0.04 0.93 0.91 99 1007.1
20260505204005 53 2 4.3 8.7 0.05 0.93 0.91 99 1007.0
20260505203505 53 6 2.6 8.7 0.05 0.93 0.91 99 1007.1
20260505203004 53 5 4.3 8.7 0.05 0.93 0.91 99 1006.9
20260505202504 53 14 3.5 7.0 0.05 0.93 0.90 99 1007.1
20260505201505 53 22 3.5 12.2 0.05 0.91 0.89 99 1007.2
20260505200504 53 2 2.6 8.7 0.06 0.90 0.87 99 1007.1
20260505200004 53 23 2.6 6.1 0.07 0.89 0.87 99 1007.0
20260505195004 53 2 4.3 7.0 0.10 0.89 0.87 99 1007.0
20260505194504 54 7 3.5 7.8 0.11 0.89 0.87 99 1007.0
20260505193505 54 6 2.6 5.2 0.11 0.88 0.86 99 1006.8
20260505193005 54 9 1.7 6.1 0.11 0.88 0.85 99 1006.7
20260505192504 54 8 1.7 5.2 0.11 0.87 0.85 99 1006.7
20260505192005 54 26 0.9 6.1 0.12 0.87 0.85 99 1006.6
20260505191504 54 24 1.7 5.2 0.13 0.86 0.83 99 1006.6
20260505191004 54 25 1.7 6.1 0.14 0.85 0.83 99 1006.6
20260505190505 54 8 1.7 5.2 0.14 0.84 0.81 99 1006.6
20260505190005 54 7 1.7 5.2 0.13 0.82 0.80 99 1006.5
20260505185504 54 7 1.7 4.3 0.11 0.80 0.78 99 1006.5
20260505185005 54 40 0.9 4.3 0.10 0.79 0.77 99 1006.4
20260505184505 54 21 1.7 4.3 0.09 0.78 0.76 99 1006.4
20260505184005 54 51 1.7 4.3 0.09 0.78 0.76 99 1006.4
20260505183505 54 24 1.7 6.1 0.09 0.78 0.75 99 1006.3
20260505183004 54 10 2.6 6.1 0.09 0.77 0.75 99 1006.4
20260505182505 55 10 3.5 7.8 0.08 0.77 0.74 99 1006.4
20260505182005 55 3 1.7 4.3 0.07 0.75 0.73 99 1006.3
20260505181506 55 3 1.7 5.2 0.07 0.75 0.73 99 1006.3
20260505181006 55 96 0.9 5.2 0.05 0.73 0.71 99 1006.2
20260505180506 55 15 1.7 6.1 0.03 0.71 0.69 99 1006.3
20260505175005 56 3 1.7 4.3 0.01 0.69 0.67 99 1006.2
20260505173505 56 287 0.0 1.7 0.01 0.69 0.67 99 1006.2
20260505173005 56 3 0.9 1.7 0.01 0.69 0.66 99 1006.1
20260505172506 56 41 1.7 4.3 0.01 0.69 0.66 99 1006.1
20260505172006 56 344 1.7 4.3 0.02 0.69 0.66 99 1006.2
20260505171506 56 334 0.9 2.6 0.02 0.69 0.66 99 1006.4
20260505171006 56 344 0.9 4.3 0.02 0.68 0.66 99 1006.1
20260505170506 56 333 1.7 5.2 0.02 0.68 0.66 99 1006.2
20260505170006 56 343 1.7 5.2 0.03 0.68 0.66 99 1006.1
20260505165506 56 321 0.9 5.2 0.03 0.68 0.65 99 1006.1
20260505165005 56 317 0.9 2.6 0.03 0.68 0.65 99 1006.0
20260505164505 56 314 0.9 4.3 0.03 0.68 0.65 99 1006.0
20260505164005 56 341 1.7 4.3 0.03 0.68 0.65 99 1006.2
20260505163505 56 334 1.7 2.6 0.04 0.68 0.65 99 1006.2
20260505163008 56 343 1.7 4.3 0.04 0.67 0.65 99 1006.3
20260505162505 56 338 2.6 6.1 0.04 0.67 0.65 99 1006.1
20260505162006 56 340 0.9 2.6 0.05 0.67 0.65 99 1006.3
20260505161006 56 336 1.7 2.6 0.06 0.67 0.64 98 1006.0
20260505160505 56 338 1.7 5.2 0.07 0.66 0.64 98 1006.1
20260505153006 55 289 0.9 4.3 0.07 0.64 0.61 99 1006.1
20260505152506 55 292 2.6 6.1 0.06 0.63 0.61 99 1006.1
20260505152006 55 291 3.5 6.1 0.06 0.63 0.60 99 1005.9
20260505151505 56 264 3.5 6.1 0.05 0.61 0.59 98 1006.1
20260505151006 56 281 2.6 5.2 0.04 0.60 0.58 98 1006.1
20260505150505 56 204 2.6 5.2 0.03 0.59 0.57 98 1006.3
20260505140506 56 236 3.5 6.1 0.02 0.56 0.54 99 1006.2
20260505125005 56 259 2.6 5.2 0.01 0.55 0.52 99 1006.4
20260505124005 56 263 3.5 5.2 0.01 0.55 0.52 99 1006.4
20260505123505 56 271 1.7 6.1 0.01 0.55 0.52 99 1006.4
20260505123006 56 278 3.5 7.0 0.01 0.55 0.52 99 1006.3
20260505122005 55 265 2.6 6.1 0.02 0.55 0.52 99 1006.2
20260505121505 55 272 2.6 7.0 0.02 0.55 0.52 99 1006.3
20260505121005 55 271 4.3 7.8 0.02 0.55 0.52 99 1006.4
20260505115505 56 247 2.6 5.2 0.02 0.54 0.52 99 1006.3
20260505115006 55 260 0.9 6.1 0.02 0.54 0.52 99 1006.5
20260505114505 55 280 2.6 7.0 0.02 0.54 0.51 99 1006.3
20260505114005 55 255 3.5 7.8 0.02 0.54 0.51 99 1006.3
20260505113506 55 266 4.3 7.0 0.02 0.54 0.51 99 1006.5
20260505113005 55 284 1.7 6.1 0.02 0.54 0.51 99 1006.3
20260505112505 54 286 3.5 7.8 0.01 0.53 0.51 99 1006.3
20260505112006 55 273 4.3 6.1 0.01 0.53 0.51 99 1006.4
20260505111505 54 274 3.5 8.7 0.01 0.53 0.51 99 1006.5
20260505111005 55 282 4.3 7.0 0.01 0.53 0.50 99 1006.5
20260505110505 55 269 2.6 5.2 0.00 0.52 0.50 99 1006.6
20260505102006 54 275 2.6 4.3 0.01 0.52 0.50 99 1006.5
20260505101006 54 292 3.5 6.1 0.02 0.52 0.50 99 1006.4
20260505100505 54 280 1.7 8.7 0.02 0.52 0.50 99 1006.4
20260505100005 54 287 3.5 6.1 0.02 0.52 0.50 99 1006.5
20260505095505 54 276 2.6 5.2 0.02 0.52 0.49 99 1006.5
20260505095005 54 289 4.3 7.0 0.02 0.52 0.49 99 1006.3
20260505094505 54 284 4.3 8.7 0.02 0.52 0.49 99 1006.3
20260505094005 54 268 4.3 8.7 0.02 0.52 0.49 99 1006.3
20260505093505 54 281 2.6 7.0 0.02 0.52 0.49 99 1006.4
20260505093006 54 284 3.5 7.0 0.02 0.52 0.49 99 1006.5
20260505092505 54 288 2.6 7.0 0.02 0.52 0.49 99 1006.5
20260505091505 54 299 2.6 7.0 0.02 0.51 0.48 99 1006.3
20260505091005 54 293 4.3 6.1 0.01 0.50 0.48 99 1006.4
20260505090505 54 280 1.7 5.2 0.01 0.50 0.48 99 1006.5
20260505090005 54 294 3.5 5.2 0.01 0.50 0.48 99 1006.3
20260505085505 54 277 2.6 6.1 0.00 0.50 0.47 99 1006.4
20260505085005 54 277 1.7 5.2 0.00 0.50 0.47 99 1006.3
20260505084505 54 289 2.6 7.0 0.01 0.50 0.47 99 1006.5
20260505084006 54 295 2.6 7.0 0.01 0.50 0.47 99 1006.2
20260505083505 54 290 3.5 7.0 0.01 0.50 0.47 99 1006.2
20260505083005 54 292 2.6 7.0 0.01 0.49 0.47 99 1006.2
20260505082505 54 291 2.6 6.1 0.01 0.49 0.47 99 1006.2
20260505082005 54 299 2.6 6.1 0.02 0.49 0.47 99 1006.2
20260505081505 54 290 2.6 7.8 0.02 0.49 0.47 99 1006.2
20260505081005 54 300 1.7 7.0 0.03 0.49 0.47 99 1006.2
20260505080005 54 305 2.6 7.0 0.04 0.49 0.47 99 1006.5
20260505074006 54 301 2.6 5.2 0.05 0.49 0.46 99 1006.3
20260505073505 54 295 2.6 7.0 0.05 0.48 0.46 99 1006.4